SCP
0 0 0 0 0 0 0 0 0 0 0 0 0 0 0 0 0 0 0 0 0 0 0 0 0 0 0 0 0 1 1 1 2 1 1 0 0 0 0 0 0 0 0 0
0 0 0 0 0 0 0 0 0 0 0 0 0 0 0 0 0 0 0 0 0 0 0 0 0 0 0 0 1 1 1 1 1 1 1 1 1 0 0 0 0 0 0 0
0 0 0 0 0 0 0 0 0 0 0 0 0 0 0 0 0 0 0 0 0 0 0 0 0 0 1 0 1 1 1 1 2 1 1 2 1 0 0 0 0 0 0 0
0 0 0 0 0 0 0 0 0 0 0 0 0 0 0 0 0 0 0 0 0 0 0 0 0 0 1 1 0 1 1 1 1 1 1 2 1 1 1 0 0 0 0 0
0 0 0 0 0 0 0 0 0 0 0 0 0 0 0 0 0 0 0 0 0 0 0 0 0 0 0 1 1 1 1 1 1 1 2 1 2 1 2 2 2 1 0 0
0 0 0 0 0 0 0 0 0 0 0 0 0 0 0 0 0 0 0 0 0 0 0 0 0 0 0 0 2 2 1 1 1 1 1 2 2 2 2 2 3 3 1 1
0 0 0 0 0 0 0 0 0 0 0 0 0 0 0 0 0 0 0 0 0 0 0 0 0 0 1 0 0 2 4 2 1 1 1 1 1 2 2 3 3 2 2 1
0 0 0 0 0 0 0 0 0 0 0 0 0 0 0 0 0 0 0 0 0 0 0 0 0 0 0 0 0 0 1 2 3 3 2 1 2 4 3 2 2 2 1 1
0 0 0 0 0 0 0 0 0 0 0 0 0 0 0 0 0 0 0 0 0 0 0 0 0 0 0 0 0 0 0 0 0 1 1 2 3 2 2 2 1 0 0 0
0 0 0 0 0 0 0 0 0 0 0 0 0 0 0 0 0 0 0 0 0 0 0 0 0 0 0 0 0 0 0 0 0 0 0 0 0 1 1 1 1 0 0 0
0 0 0 0 0 0 0 0 0 0 0 0 0 0 0 0 0 0 0 0 0 0 0 0 0 0 0 0 0 0 0 0 0 0 0 0 -0 0 0 1 1 0 0 0
0 0 0 0 0 0 0 0 0 0 0 0 0 0 0 0 0 0 0 0 0 0 0 0 0 0 0 0 0 0 0 0 0 0 0 0 0 0 0 0 1 1 0 0
0 0 0 0 0 0 0 0 0 0 0 0 0 0 0 0 0 0 0 0 0 0 0 0 0 0 0 0 0 0 0 0 0 0 0 0 0 0 0 0 0 0 0 0
0 0 0 0 0 0 0 0 0 0 0 0 0 0 0 0 0 0 0 0 0 0 0 0 0 0 0 0 0 0 0 0 0 0 0 0 0 0 0 0 0 0 0 0
0 0 0 0 0 0 0 0 0 0 0 0 0 0 0 0 0 0 0 0 0 0 0 0 0 0 0 0 0 0 0 0 0 0 0 0 0 0 0 0 0 0 0 0
0 0 0 0 0 0 0 0 0 0 0 0 0 0 0 0 0 0 0 0 0 0 0 0 0 0 0 0 0 0 0 0 0 0 0 0 0 0 0 0 0 0 0 0
0 0 0 0 0 0 0 0 0 0 0 0 0 0 0 0 0 0 0 0 0 0 0 0 0 0 0 0 0 0 0 0 0 0 0 0 0 0 0 0 0 0 0 0
0 0 0 0 0 0 0 0 0 0 0 0 0 0 0 0 0 0 0 0 0 0 0 0 0 0 0 0 0 0 0 0 0 0 0 0 0 0 0 0 0 0 0 0
0 0 0 0 0 0 0 0 0 0 0 0 0 0 0 0 0 0 0 0 0 0 0 0 0 0 0 0 0 0 0 0 0 0 0 0 0 -0 -0 -0 -0 -0 -0 0
0 0 0 0 0 0 0 0 0 0 0 0 0 0 0 0 0 0 0 0 0 0 0 0 0 0 0 0 0 0 0 0 0 0 0 0 0 0 -0 -0 0 0 0 0
0 0 0 0 0 0 0 0 0 0 0 0 0 0 0 0 0 0 0 0 0 0 0 0 0 0 0 0 0 0 0 0 0 0 0 0 0 0 0 0 -0 -0 0 0
0 0 0 0 0 0 0 0 0 0 0 0 0 0 0 0 0 0 0 0 0 0 0 0 0 0 0 0 0 0 0 0 0 0 0 0 0 0 0 0 0 -0 -0 0
0 0 0 0 0 0 0 0 0 0 0 0 0 0 0 0 0 0 0 0 0 0 0 0 0 0 0 0 0 0 0 0 0 0 0 0 0 0 0 0 0 -0 -0 -0
0 0 0 0 0 0 0 0 0 0 0 0 0 0 0 0 0 0 0 0 0 0 0 0 0 0 0 0 0 0 0 0 0 0 0 0 0 0 0 0 0 0 -0 -0
0 0 0 0 0 0 0 0 0 0 0 0 0 0 0 0 0 0 0 0 0 0 0 0 0 0 0 0 0 0 0 0 0 0 0 0 0 0 0 0 0 0 -0 -0
0 0 0 0 0 0 0 0 0 0 0 0 0 0 0 0 0 0 0 0 0 0 0 0 0 0 0 0 -0 -0 0 0 0 0 0 0 0 0 0 0 0 0 0 0
Wind_Speed_500mb
11 13 21 26 19 11 8 9 16 9 10 7 8 15 18 20 23 14 7 11 13 11 15 18 27 37 47 51 55 58 64 69 75 81 73 70 70 65 65 71 72 69 63 59
10 25 26 16 15 13 11 8 14 15 7 13 7 18 18 14 10 16 15 17 21 19 15 17 20 22 36 45 50 55 62 68 70 83 82 78 74 77 72 71 74 70 64 60
26 6 14 21 15 16 13 15 12 15 1 11 9 8 4 13 22 18 23 22 25 31 32 27 28 23 20 33 46 53 59 64 68 76 86 87 83 82 79 79 76 70 66 64
16 12 13 17 20 21 17 26 19 16 5 6 4 6 8 4 10 21 30 32 35 37 34 34 34 33 24 23 41 46 46 58 66 71 82 93 91 89 84 82 78 69 68 67
12 13 19 16 23 26 16 13 19 13 13 6 12 9 8 9 9 23 32 31 33 36 38 41 42 38 33 27 27 44 45 49 55 63 70 84 92 94 87 80 78 72 67 67
2 5 5 6 5 18 2 10 6 3 9 17 17 14 11 4 11 17 21 26 32 37 40 41 41 39 36 31 22 23 35 40 43 53 58 71 82 93 92 82 77 75 71 71
2 7 9 9 6 6 8 12 9 13 14 19 9 12 6 4 6 10 16 24 32 36 43 47 51 49 50 45 34 17 17 23 30 39 48 57 65 77 91 88 76 64 68 74
6 10 16 19 9 4 5 5 10 11 10 5 4 9 8 8 6 8 14 20 26 34 37 42 47 50 50 47 40 28 17 11 16 25 36 42 54 66 75 81 73 65 62 65
3 7 5 16 22 5 5 3 5 7 3 6 6 6 8 8 6 9 9 14 26 32 35 34 38 43 47 48 45 36 28 20 13 13 28 40 46 58 65 68 70 66 61 41
5 5 8 11 6 17 13 4 5 2 11 19 10 9 6 15 9 10 15 21 26 27 30 28 37 43 36 32 35 38 39 32 27 23 19 18 32 46 49 53 46 47 33 46
6 1 9 8 3 6 6 3 5 2 5 8 11 7 5 5 8 13 15 19 24 24 24 30 38 38 28 27 28 32 36 38 36 31 24 12 4 11 29 39 47 52 47 43
4 6 6 10 7 9 13 14 14 10 11 4 5 5 8 11 12 17 22 32 34 29 28 28 35 36 30 31 32 33 32 31 29 27 30 36 20 10 12 24 42 43 44 48
10 4 4 4 7 6 8 8 7 6 1 29 20 8 7 8 11 17 23 26 30 30 29 26 32 27 22 32 30 24 19 23 23 27 29 26 23 19 12 21 28 33 47 53
4 4 8 11 8 2 6 7 4 4 8 10 13 8 9 4 8 11 17 20 21 27 33 35 31 29 34 34 32 24 23 26 27 29 31 30 28 26 18 12 23 33 32 40
1 7 3 2 2 4 8 13 13 15 14 14 14 18 17 3 5 9 7 15 20 23 28 31 34 35 31 25 28 25 21 27 35 33 30 30 28 27 28 24 9 22 40 47
6 4 4 5 3 8 18 19 18 19 21 22 24 27 1 5 5 12 19 29 32 25 25 31 37 40 39 36 31 31 27 27 30 32 27 25 25 28 27 24 21 6 25 36
2 7 4 8 5 13 20 29 29 16 11 13 17 11 2 3 16 24 32 36 37 30 33 39 41 44 45 40 39 32 29 28 24 23 25 25 26 26 26 26 24 20 15 25
3 6 4 8 6 13 5 1 9 15 10 15 9 4 1 10 23 35 34 32 24 33 48 49 46 46 48 47 43 41 35 34 28 24 24 27 26 27 28 27 26 23 22 22
16 9 6 6 10 17 14 10 10 12 10 11 13 8 3 17 28 39 3 13 35 49 48 48 46 47 48 48 47 48 45 40 37 31 24 26 29 29 32 32 33 33 27 25
12 9 14 6 7 7 3 11 12 7 19 13 12 7 14 14 15 24 21 41 47 46 45 50 52 51 48 47 49 51 51 48 46 38 34 31 32 30 28 33 37 39 35 31
10 8 19 14 8 12 5 19 15 10 5 17 8 15 17 16 24 44 52 52 48 53 56 53 51 52 50 46 43 47 50 51 47 43 42 39 37 34 30 29 31 37 39 35
11 13 9 10 9 15 20 16 10 7 5 11 15 18 20 29 41 48 50 55 60 56 52 51 50 49 45 44 43 44 49 51 48 47 44 40 37 35 31 32 32 33 38 36
7 6 2 12 6 4 21 2 5 10 20 15 13 17 23 35 44 49 53 54 57 54 57 45 42 43 47 45 42 45 45 47 51 48 44 40 37 38 32 31 33 35 36 35
7 6 6 4 3 11 15 19 23 20 24 20 21 28 30 38 43 50 49 54 52 46 41 39 41 45 46 50 48 47 46 43 43 48 42 36 36 37 35 31 30 33 34 34
7 5 6 11 21 21 13 15 12 18 24 28 33 28 32 34 46 41 44 45 42 40 37 36 43 43 41 42 43 41 41 41 40 40 44 34 23 25 32 31 34 30 36 33
11 8 9 7 7 5 13 11 26 31 30 28 31 37 34 38 37 39 45 48 45 42 43 43 43 42 44 48 45 38 29 28 32 32 41 44 43 27 24 32 39 37 31 25
Wind_Direction_500mb
185 206 213 208 208 231 200 242 263 255 247 269 263 265 287 289 287 306 344 1 340 320 326 324 311 266 248 251 252 253 245 239 237 229 227 220 214 216 238 235 235 239 237 237
176 229 228 208 179 186 196 219 260 299 216 213 267 283 294 297 61 63 29 2 346 336 320 323 344 302 249 242 252 254 252 247 241 238 234 231 227 233 239 238 239 237 235 234
213 195 186 181 171 188 212 225 236 258 128 237 257 229 318 99 98 62 34 5 350 344 334 327 327 340 298 265 246 252 258 257 250 242 239 236 237 235 239 236 234 233 233 230
229 224 174 183 206 203 231 216 236 248 234 250 256 230 282 112 120 40 16 6 353 347 341 335 327 322 321 285 261 246 251 256 258 252 245 239 236 238 242 238 234 232 231 226
198 195 191 207 228 194 227 194 209 211 221 219 192 242 184 358 127 12 6 6 2 1 356 348 341 334 323 309 269 257 250 250 257 260 252 249 243 244 245 242 238 234 233 230
164 55 45 331 68 194 111 164 121 133 186 242 234 237 182 354 343 359 21 25 23 22 20 16 6 356 348 334 309 262 259 264 264 261 260 255 249 244 243 247 242 237 234 231
176 44 353 14 196 92 201 192 220 218 211 250 132 217 27 27 36 21 12 21 24 29 30 24 23 16 11 356 352 335 285 281 278 274 269 263 258 252 247 248 249 246 241 236
208 164 13 358 25 12 75 259 241 254 231 185 171 206 113 113 111 38 39 30 23 23 22 26 27 27 26 23 6 358 355 309 282 273 272 265 258 255 252 249 249 250 249 243
135 106 319 48 44 344 92 101 355 106 40 247 150 112 179 185 123 83 46 23 16 9 10 17 25 28 29 34 35 24 5 351 325 276 251 249 257 254 250 248 246 247 245 256
129 148 22 7 329 43 67 45 205 104 225 242 191 195 151 166 103 59 45 18 4 360 1 11 15 13 15 25 41 47 47 41 28 6 333 278 256 258 251 245 249 253 246 278
113 299 175 298 36 336 335 248 75 332 245 264 251 155 80 94 354 334 349 342 338 339 340 338 338 346 359 18 34 38 35 33 34 31 19 21 23 272 264 249 248 251 259 258
59 132 210 260 332 278 246 258 232 230 191 213 309 202 72 43 28 5 10 7 353 328 314 320 327 331 327 324 327 337 344 4 12 8 11 18 10 292 258 255 246 241 229 232
173 167 187 204 210 186 216 164 139 119 140 253 254 221 144 63 42 21 15 9 10 11 2 333 309 315 318 335 327 344 6 5 9 6 5 12 21 16 319 257 243 253 220 227
128 152 229 266 337 44 205 180 141 202 229 256 243 280 215 335 18 14 20 21 16 15 11 3 348 305 298 298 307 328 340 342 349 357 360 360 3 15 15 336 268 253 250 240
357 245 252 264 188 236 246 240 238 233 248 253 276 266 288 260 343 4 358 348 340 346 353 356 352 347 335 296 282 298 314 324 328 334 344 356 2 1 2 12 353 256 245 250
7 185 206 241 310 282 270 251 242 243 254 262 262 271 194 130 328 329 338 339 336 328 330 331 332 334 333 330 317 287 292 297 305 312 324 342 353 359 1 2 10 293 244 237
304 164 176 263 5 302 275 250 229 224 211 244 243 292 144 326 341 331 324 322 316 314 318 320 320 318 317 316 320 309 289 289 298 305 310 320 333 343 347 345 341 347 313 263
215 177 197 291 280 245 26 11 211 215 241 224 248 207 80 347 321 307 307 297 302 311 311 312 312 310 308 303 302 303 288 283 285 283 291 304 318 333 342 341 334 325 320 319
216 211 202 243 232 294 257 202 199 214 271 226 229 194 248 332 320 303 304 312 306 305 304 306 308 307 305 299 287 288 286 279 275 275 285 292 301 318 333 339 340 335 321 314
160 230 223 182 240 253 59 159 140 140 270 155 172 185 305 315 295 300 313 306 305 303 302 303 303 304 301 300 293 280 273 274 270 271 273 278 289 302 324 332 334 336 332 328
155 181 212 216 250 279 202 155 150 235 17 158 200 287 285 270 283 295 305 305 305 300 299 301 301 301 297 298 294 285 271 263 265 263 261 264 273 284 302 322 329 325 325 322
183 179 188 194 215 262 147 144 222 67 162 236 269 285 288 293 293 296 299 303 306 303 303 300 300 297 295 297 294 289 281 268 260 260 257 256 258 267 285 304 319 326 323 318
222 239 231 214 230 14 191 272 248 284 287 268 288 302 301 300 305 306 305 302 308 303 301 301 301 300 301 300 294 288 287 279 267 259 254 252 253 251 265 287 306 318 323 319
205 192 238 271 140 240 248 264 272 290 279 263 281 295 301 305 307 307 310 308 307 307 300 299 301 305 303 305 295 287 285 281 273 265 254 254 256 254 255 274 293 311 319 321
281 200 241 264 274 276 272 242 296 307 301 283 290 296 306 307 308 308 314 314 308 303 302 300 301 309 317 319 300 295 284 278 274 267 250 250 270 267 250 268 287 298 310 314
215 228 207 245 3 289 300 276 302 298 300 296 299 304 312 313 303 312 315 318 306 299 299 298 297 297 300 305 309 302 299 283 281 270 264 246 252 291 278 273 282 292 302 311
Wind_Speed_850mb
11 13 21 26 19 11 8 9 16 9 10 7 8 15 18 20 23 14 7 11 13 11 15 18 27 37 47 51 55 58 64 69 75 81 73 70 70 65 65 71 72 69 63 59
10 25 26 16 15 13 11 8 14 15 7 13 7 18 18 14 10 16 15 17 21 19 15 17 20 22 36 45 50 55 62 68 70 83 82 78 74 77 72 71 74 70 64 60
26 6 14 21 15 16 13 15 12 15 1 11 9 8 4 13 22 18 23 22 25 31 32 27 28 23 20 33 46 53 59 64 68 76 86 87 83 82 79 79 76 70 66 64
16 12 13 17 20 21 17 26 19 16 5 6 4 6 8 4 10 21 30 32 35 37 34 34 34 33 24 23 41 46 46 58 66 71 82 93 91 89 84 82 78 69 68 67
12 13 19 16 23 26 16 13 19 13 13 6 12 9 8 9 9 23 32 31 33 36 38 41 42 38 33 27 27 44 45 49 55 63 70 84 92 94 87 80 78 72 67 67
2 5 5 6 5 18 2 10 6 3 9 17 17 14 11 4 11 17 21 26 32 37 40 41 41 39 36 31 22 23 35 40 43 53 58 71 82 93 92 82 77 75 71 71
2 7 9 9 6 6 8 12 9 13 14 19 9 12 6 4 6 10 16 24 32 36 43 47 51 49 50 45 34 17 17 23 30 39 48 57 65 77 91 88 76 64 68 74
6 10 16 19 9 4 5 5 10 11 10 5 4 9 8 8 6 8 14 20 26 34 37 42 47 50 50 47 40 28 17 11 16 25 36 42 54 66 75 81 73 65 62 65
3 7 5 16 22 5 5 3 5 7 3 6 6 6 8 8 6 9 9 14 26 32 35 34 38 43 47 48 45 36 28 20 13 13 28 40 46 58 65 68 70 66 61 41
5 5 8 11 6 17 13 4 5 2 11 19 10 9 6 15 9 10 15 21 26 27 30 28 37 43 36 32 35 38 39 32 27 23 19 18 32 46 49 53 46 47 33 46
6 1 9 8 3 6 6 3 5 2 5 8 11 7 5 5 8 13 15 19 24 24 24 30 38 38 28 27 28 32 36 38 36 31 24 12 4 11 29 39 47 52 47 43
4 6 6 10 7 9 13 14 14 10 11 4 5 5 8 11 12 17 22 32 34 29 28 28 35 36 30 31 32 33 32 31 29 27 30 36 20 10 12 24 42 43 44 48
10 4 4 4 7 6 8 8 7 6 1 29 20 8 7 8 11 17 23 26 30 30 29 26 32 27 22 32 30 24 19 23 23 27 29 26 23 19 12 21 28 33 47 53
4 4 8 11 8 2 6 7 4 4 8 10 13 8 9 4 8 11 17 20 21 27 33 35 31 29 34 34 32 24 23 26 27 29 31 30 28 26 18 12 23 33 32 40
1 7 3 2 2 4 8 13 13 15 14 14 14 18 17 3 5 9 7 15 20 23 28 31 34 35 31 25 28 25 21 27 35 33 30 30 28 27 28 24 9 22 40 47
6 4 4 5 3 8 18 19 18 19 21 22 24 27 1 5 5 12 19 29 32 25 25 31 37 40 39 36 31 31 27 27 30 32 27 25 25 28 27 24 21 6 25 36
2 7 4 8 5 13 20 29 29 16 11 13 17 11 2 3 16 24 32 36 37 30 33 39 41 44 45 40 39 32 29 28 24 23 25 25 26 26 26 26 24 20 15 25
3 6 4 8 6 13 5 1 9 15 10 15 9 4 1 10 23 35 34 32 24 33 48 49 46 46 48 47 43 41 35 34 28 24 24 27 26 27 28 27 26 23 22 22
16 9 6 6 10 17 14 10 10 12 10 11 13 8 3 17 28 39 3 13 35 49 48 48 46 47 48 48 47 48 45 40 37 31 24 26 29 29 32 32 33 33 27 25
12 9 14 6 7 7 3 11 12 7 19 13 12 7 14 14 15 24 21 41 47 46 45 50 52 51 48 47 49 51 51 48 46 38 34 31 32 30 28 33 37 39 35 31
10 8 19 14 8 12 5 19 15 10 5 17 8 15 17 16 24 44 52 52 48 53 56 53 51 52 50 46 43 47 50 51 47 43 42 39 37 34 30 29 31 37 39 35
11 13 9 10 9 15 20 16 10 7 5 11 15 18 20 29 41 48 50 55 60 56 52 51 50 49 45 44 43 44 49 51 48 47 44 40 37 35 31 32 32 33 38 36
7 6 2 12 6 4 21 2 5 10 20 15 13 17 23 35 44 49 53 54 57 54 57 45 42 43 47 45 42 45 45 47 51 48 44 40 37 38 32 31 33 35 36 35
7 6 6 4 3 11 15 19 23 20 24 20 21 28 30 38 43 50 49 54 52 46 41 39 41 45 46 50 48 47 46 43 43 48 42 36 36 37 35 31 30 33 34 34
7 5 6 11 21 21 13 15 12 18 24 28 33 28 32 34 46 41 44 45 42 40 37 36 43 43 41 42 43 41 41 41 40 40 44 34 23 25 32 31 34 30 36 33
11 8 9 7 7 5 13 11 26 31 30 28 31 37 34 38 37 39 45 48 45 42 43 43 43 42 44 48 45 38 29 28 32 32 41 44 43 27 24 32 39 37 31 25
Wind_Direction_850mb
185 206 213 208 208 231 200 242 263 255 247 269 263 265 287 289 287 306 344 1 340 320 326 324 311 266 248 251 252 253 245 239 237 229 227 220 214 216 238 235 235 239 237 237
176 229 228 208 179 186 196 219 260 299 216 213 267 283 294 297 61 63 29 2 346 336 320 323 344 302 249 242 252 254 252 247 241 238 234 231 227 233 239 238 239 237 235 234
213 195 186 181 171 188 212 225 236 258 128 237 257 229 318 99 98 62 34 5 350 344 334 327 327 340 298 265 246 252 258 257 250 242 239 236 237 235 239 236 234 233 233 230
229 224 174 183 206 203 231 216 236 248 234 250 256 230 282 112 120 40 16 6 353 347 341 335 327 322 321 285 261 246 251 256 258 252 245 239 236 238 242 238 234 232 231 226
198 195 191 207 228 194 227 194 209 211 221 219 192 242 184 358 127 12 6 6 2 1 356 348 341 334 323 309 269 257 250 250 257 260 252 249 243 244 245 242 238 234 233 230
164 55 45 331 68 194 111 164 121 133 186 242 234 237 182 354 343 359 21 25 23 22 20 16 6 356 348 334 309 262 259 264 264 261 260 255 249 244 243 247 242 237 234 231
176 44 353 14 196 92 201 192 220 218 211 250 132 217 27 27 36 21 12 21 24 29 30 24 23 16 11 356 352 335 285 281 278 274 269 263 258 252 247 248 249 246 241 236
208 164 13 358 25 12 75 259 241 254 231 185 171 206 113 113 111 38 39 30 23 23 22 26 27 27 26 23 6 358 355 309 282 273 272 265 258 255 252 249 249 250 249 243
135 106 319 48 44 344 92 101 355 106 40 247 150 112 179 185 123 83 46 23 16 9 10 17 25 28 29 34 35 24 5 351 325 276 251 249 257 254 250 248 246 247 245 256
129 148 22 7 329 43 67 45 205 104 225 242 191 195 151 166 103 59 45 18 4 360 1 11 15 13 15 25 41 47 47 41 28 6 333 278 256 258 251 245 249 253 246 278
113 299 175 298 36 336 335 248 75 332 245 264 251 155 80 94 354 334 349 342 338 339 340 338 338 346 359 18 34 38 35 33 34 31 19 21 23 272 264 249 248 251 259 258
59 132 210 260 332 278 246 258 232 230 191 213 309 202 72 43 28 5 10 7 353 328 314 320 327 331 327 324 327 337 344 4 12 8 11 18 10 292 258 255 246 241 229 232
173 167 187 204 210 186 216 164 139 119 140 253 254 221 144 63 42 21 15 9 10 11 2 333 309 315 318 335 327 344 6 5 9 6 5 12 21 16 319 257 243 253 220 227
128 152 229 266 337 44 205 180 141 202 229 256 243 280 215 335 18 14 20 21 16 15 11 3 348 305 298 298 307 328 340 342 349 357 360 360 3 15 15 336 268 253 250 240
357 245 252 264 188 236 246 240 238 233 248 253 276 266 288 260 343 4 358 348 340 346 353 356 352 347 335 296 282 298 314 324 328 334 344 356 2 1 2 12 353 256 245 250
7 185 206 241 310 282 270 251 242 243 254 262 262 271 194 130 328 329 338 339 336 328 330 331 332 334 333 330 317 287 292 297 305 312 324 342 353 359 1 2 10 293 244 237
304 164 176 263 5 302 275 250 229 224 211 244 243 292 144 326 341 331 324 322 316 314 318 320 320 318 317 316 320 309 289 289 298 305 310 320 333 343 347 345 341 347 313 263
215 177 197 291 280 245 26 11 211 215 241 224 248 207 80 347 321 307 307 297 302 311 311 312 312 310 308 303 302 303 288 283 285 283 291 304 318 333 342 341 334 325 320 319
216 211 202 243 232 294 257 202 199 214 271 226 229 194 248 332 320 303 304 312 306 305 304 306 308 307 305 299 287 288 286 279 275 275 285 292 301 318 333 339 340 335 321 314
160 230 223 182 240 253 59 159 140 140 270 155 172 185 305 315 295 300 313 306 305 303 302 303 303 304 301 300 293 280 273 274 270 271 273 278 289 302 324 332 334 336 332 328
155 181 212 216 250 279 202 155 150 235 17 158 200 287 285 270 283 295 305 305 305 300 299 301 301 301 297 298 294 285 271 263 265 263 261 264 273 284 302 322 329 325 325 322
183 179 188 194 215 262 147 144 222 67 162 236 269 285 288 293 293 296 299 303 306 303 303 300 300 297 295 297 294 289 281 268 260 260 257 256 258 267 285 304 319 326 323 318
222 239 231 214 230 14 191 272 248 284 287 268 288 302 301 300 305 306 305 302 308 303 301 301 301 300 301 300 294 288 287 279 267 259 254 252 253 251 265 287 306 318 323 319
205 192 238 271 140 240 248 264 272 290 279 263 281 295 301 305 307 307 310 308 307 307 300 299 301 305 303 305 295 287 285 281 273 265 254 254 256 254 255 274 293 311 319 321
281 200 241 264 274 276 272 242 296 307 301 283 290 296 306 307 308 308 314 314 308 303 302 300 301 309 317 319 300 295 284 278 274 267 250 250 270 267 250 268 287 298 310 314
215 228 207 245 3 289 300 276 302 298 300 296 299 304 312 313 303 312 315 318 306 299 299 298 297 297 300 305 309 302 299 283 281 270 264 246 252 291 278 273 282 292 302 311